Погода в Богородицком

Россия / Орловская область     53°03′32″N   35°21′57″E
темп.,
°C
ветер,
м/с
пор.,
м/с
влажн.,
%
обл.,
%
осадки,
мм/ч
давл.,
гПа
погр.,
м
23 сентября, чт
чт2300:00+7с2297100 0.2 101291
03:00+7ссз239798 0.4 1012122
06:00+7сз2497100 0.2 1012143
09:00+8сз3392100 0.6 1012287
12:00+8з3392100 0.9 1012302
15:00+8з238984 1.0 1012177
18:00+7зюз3492100 0.8 1012255
21:00+6зюз249396 0.8 1012164
24 сентября, пт
пт2400:00+5юз3591100 0.0 1010250
03:00+4ю489296 0.0 1009366
06:00+5ю5109188 0.0 1007525
09:00+6ю71388100 0.0 1004791
12:00+7ююв91589100 0.9 10011166
15:00+7ююв91393100 3.4 9991037
18:00+7ю71195100 1.1 999628
21:00+8ююв589685 1.1 1000383
25 сентября, сб
сб2500:00+8ююв3698100 0.0 1001265
03:00+7ююв229887 0.1 100242
06:00+8юв1197100 0.0 100434
09:00+9ююз2391100 0.1 1006148
12:00+11юз347461 0.1 1007564
15:00+12з666967 0.3 10081048
18:00+10зюз368575 0.0 1009369
21:00+9зюз4892100 0.0 1010389
26 сентября, вс
вс2600:00+8юз4996100 1.3 1009446
03:00+9зюз4998100 2.8 1008413
06:00+10сз6109296 0.3 1009664
09:00+10сз71086100 0.4 1011856
12:00+12сз8106796 0.3 10121328
15:00+12ссз71068100 0.4 10141209
18:00+9ссз7127590 0.3 1015901
21:00+8ссз6118299 0.3 1017747
27 сентября, пн
пн2700:00+8ссз51086100 0.2 1018710
03:00+8ссз598995 0.2 1019648
06:00+8с4891100 0.0 1021579
09:00+8с4689100 0.0 1022434
12:00+11ссв4577100 0.0 1023749
15:00+12с347198 0.1 1023760
18:00+10ссв368198 0.3 1024195
21:00+8св379174 0.4 1026160